Location: Bjelajci
(45.0103°N, 16.1758°E)
Time: 09:51:26
(UTC+00:00)

Cosmos 1725 Rocket - Pass Details

Date: 14 July 2020
Orbit: 963 x 989 km, 82.9° (Epoch: 07 August)

Event Time Altitude Azimuth Distance (km) Brightness Sun altitude
Exits shadow 01:21:05 24° 209° (SSW) 1,880 4.9 -16.1°
Maximum altitude 01:24:51 60° 281° (WNW) 1,101 4.1 -15.8°
Drops below altitude 10° 01:31:03 10° 2° (N) 2,736 7.2 -15.1°
Sets 01:33:37 0° 6° (N) 3,691 8.1 -14.9°
